Stations météo

réclame
Mon MeteoGroup
Skillinge, Suède (2625): Température de l'air & dewpoint: 13.06.2018 16:00:00 - 19.06.2018 16:00:00 (CEST)Skillinge, Suède (2625): Vitesse du vent & gusts: 13.06.2018 16:00:00 - 19.06.2018 16:00:00 (CEST)Skillinge, Suède (2625): Direction du vent: 13.06.2018 16:00:00 - 19.06.2018 16:00:00 (CEST)Skillinge, Suède (2625): reduced air pressure: 13.06.2018 16:00:00 - 19.06.2018 16:00:00 (CEST)Skillinge, Suède (2625): visibility: 13.06.2018 16:00:00 - 19.06.2018 16:00:00 (CEST)Skillinge, Suède (2625): Quantités de précipitations: 13.06.2018 16:00:00 - 19.06.2018 16:00:00 (CEST)
Date & Time tt [°C] td [°C] ff [km/h] ff [knt] fx [km/h] fx [knt] dd ppp [hPa] vv [km] rr [mm]
19.06.2018 16:00:00 22,0 11,7 36 19 57 31 WSW 1015,9 33 0,0
19.06.2018 15:00:00 21,5 12,9 31 17 53 29 WSW 1015,7 24 0,0
19.06.2018 14:00:00 19,9 12,4 34 18 52 28 WSW 1015,6 24 0,0
19.06.2018 13:00:00 20,6 13,8 26 14 49 26 WSW 1015,8 21 0,0
19.06.2018 12:00:00 18,3 12,7 29 16 49 26 WSW 1015,5 22 0,0
19.06.2018 11:00:00 17,2 13,3 21 11 44 24 WSW 1015,5 17 0,0
19.06.2018 10:00:00 18,2 11,5 23 12 44 24 WSW 1015,1 31 0,0
19.06.2018 09:00:00 18,5 10,3 19 10 49 26 W 1014,8 27 0,0
19.06.2018 08:00:00 18,1 10,7 20 11 49 26 W 1014,1 30 0,0
19.06.2018 07:00:00 17,4 9,8 26 14 44 24 W 1014,2 31 0,0
19.06.2018 06:00:00 16,5 13,2 19 10 32 18 WSW 1013,7 27 0,0
19.06.2018 05:00:00 16,7 14,7 18 10 31 17 WSW 1014,1 10 0,0
19.06.2018 04:00:00 16,8 14,6 16 8 29 16 WSW 1014,1 11 0,0
19.06.2018 03:00:00 16,8 14,8 17 9 29 16 WSW 1014,4 15 0,0
19.06.2018 02:00:00 16,8 14,9 16 8 28 15 WSW 1014,8 13 0,0
19.06.2018 01:00:00 - - - - - - - - - -
19.06.2018 00:00:00 16,9 14,0 15 8 29 16 SW 1015,5 45 0,0
18.06.2018 23:00:00 16,8 14,3 16 9 27 14 SW 1015,6 10 0,0
18.06.2018 22:00:00 16,4 14,1 17 9 27 14 SW 1016,0 15 0,0
18.06.2018 21:00:00 16,1 13,4 19 10 26 14 SSW 1016,0 24 0,0
18.06.2018 20:00:00 16,3 13,6 16 9 31 17 SSW 1016,0 24 0,0
18.06.2018 19:00:00 17,0 12,3 15 8 35 19 SSW 1016,4 42 0,0
18.06.2018 18:00:00 19,3 10,6 19 11 41 22 SW 1016,6 39 0,0
18.06.2018 17:00:00 19,7 8,7 22 12 45 24 SW 1017,1 46 0,0
18.06.2018 16:00:00 19,3 11,1 24 13 45 24 WSW 1017,3 29 0,0
18.06.2018 15:00:00 20,9 10,7 23 13 41 22 SW 1017,4 35 0,0
18.06.2018 14:00:00 20,0 9,6 28 15 42 23 SW 1017,4 35 0,0
18.06.2018 13:00:00 20,1 9,9 26 14 42 23 SW 1017,6 35 0,0
18.06.2018 12:00:00 19,8 9,7 26 14 38 21 SW 1017,7 38 0,0
18.06.2018 11:00:00 19,3 10,0 23 12 32 17 SW 1017,6 27 0,0
18.06.2018 10:00:00 17,8 11,1 19 11 31 17 WSW 1017,5 29 0,0
18.06.2018 09:00:00 18,0 11,3 16 9 31 17 WSW 1017,3 32 0,0
18.06.2018 08:00:00 17,1 11,4 10 5 21 11 W 1017,4 29 0,0
18.06.2018 07:00:00 14,3 10,9 6 3 11 6 W 1017,3 26 0,0
18.06.2018 06:00:00 13,2 10,2 6 3 11 6 W 1017,1 34 0,0
18.06.2018 05:00:00 12,2 8,9 5 3 10 6 W 1016,6 35 0,0
18.06.2018 04:00:00 12,0 8,5 5 3 11 6 W 1016,6 45 0,0
18.06.2018 03:00:00 12,6 8,3 6 3 13 7 W 1016,7 50 0,0
18.06.2018 02:00:00 14,5 8,0 7 4 15 8 W 1016,4 50 0,0
18.06.2018 01:00:00 14,8 8,5 6 3 15 8 W 1016,1 50 0,0
18.06.2018 00:00:00 - - - - 16 8 - - - -
17.06.2018 23:00:00 16,4 10,9 8 5 18 10 WSW 1015,5 50 0,0
17.06.2018 22:00:00 16,9 11,2 12 6 18 10 WSW 1015,2 46 0,0
17.06.2018 21:00:00 17,8 10,4 8 4 17 9 WSW 1014,8 50 0,0
17.06.2018 20:00:00 18,9 9,9 6 4 36 20 W 1014,3 50 0,0
17.06.2018 19:00:00 19,6 11,4 11 6 43 23 W 1013,9 36 0,0
17.06.2018 18:00:00 20,2 11,9 23 12 44 24 WSW 1013,5 35 0,0
17.06.2018 17:00:00 20,3 11,2 23 12 46 25 WSW 1013,2 32 0,0
17.06.2018 16:00:00 20,1 12,1 27 15 46 25 WSW 1013,1 23 0,0
17.06.2018 15:00:00 19,8 13,9 27 15 43 23 WSW 1013,0 15 0,0
17.06.2018 14:00:00 20,6 15,2 23 13 40 21 SW 1012,8 19 0,0
17.06.2018 13:00:00 20,5 14,6 22 12 40 21 WSW 1012,5 31 0,0
17.06.2018 12:00:00 20,4 15,0 18 10 33 18 WSW 1012,3 28 0,0
17.06.2018 11:00:00 17,5 15,3 7 4 28 15 WNW 1012,1 21 0,6
17.06.2018 10:00:00 19,2 15,3 11 6 20 11 WNW 1012,0 21 0,0
17.06.2018 09:00:00 19,0 16,0 11 6 20 11 SW 1011,9 17 0,0
17.06.2018 08:00:00 17,9 15,3 5 3 21 12 SSE 1011,8 22 0,0
17.06.2018 07:00:00 17,1 15,3 13 7 32 18 E 1012,1 16 0,0
17.06.2018 06:00:00 17,1 15,1 19 10 34 19 ENE 1012,5 20 0,0
17.06.2018 05:00:00 17,0 14,3 29 15 34 19 ENE 1013,0 25 0,0
17.06.2018 04:00:00 16,3 13,0 14 7 31 17 NNE 1013,4 31 0,2
17.06.2018 03:00:00 14,7 13,2 16 9 33 18 NE 1013,7 3,9 2,6
17.06.2018 02:00:00 16,4 11,3 9 5 33 18 NW 1015,1 21 0,0
17.06.2018 01:00:00 17,4 12,3 20 11 27 15 SE 1014,2 30 0,0
17.06.2018 00:00:00 17,4 12,7 18 10 26 14 ESE 1014,8 33 0,0
16.06.2018 23:00:00 17,4 12,7 15 8 21 11 ESE 1015,2 38 0,0
16.06.2018 22:00:00 17,3 12,8 15 8 20 11 ESE 1015,5 42 0,0
16.06.2018 21:00:00 17,2 12,3 13 7 26 14 ESE 1015,6 39 0,0
16.06.2018 20:00:00 17,7 11,9 14 8 29 16 SE 1016,1 40 0,0
16.06.2018 19:00:00 17,9 12,1 21 12 29 16 ESE 1015,9 37 0,0
16.06.2018 18:00:00 18,4 11,7 22 12 26 14 ESE 1016,5 38 0,0
16.06.2018 17:00:00 18,9 11,0 18 10 21 12 E 1016,9 44 0,0
16.06.2018 16:00:00 18,5 10,8 16 9 21 12 ESE 1017,3 36 0,0
16.06.2018 15:00:00 18,5 12,0 16 9 19 11 ESE 1017,5 34 0,0
16.06.2018 14:00:00 18,2 12,2 14 8 19 10 ESE 1018,1 32 0,0
16.06.2018 13:00:00 19,0 11,1 12 7 17 9 ESE 1018,5 33 0,0
16.06.2018 12:00:00 19,1 10,9 13 7 16 9 ESE 1018,6 38 0,0
16.06.2018 11:00:00 18,5 12,0 11 6 14 8 ESE 1018,6 46 0,0
16.06.2018 10:00:00 18,1 11,9 11 6 13 7 E 1018,4 32 0,0
16.06.2018 09:00:00 17,5 12,6 5 3 6 3 E 1018,4 37 0,0
16.06.2018 08:00:00 17,0 11,5 4 2 7 4 ENE 1018,2 37 0,0
16.06.2018 07:00:00 17,0 10,4 4 2 7 4 ENE 1018,2 40 0,0
16.06.2018 06:00:00 15,2 8,9 4 2 6 3 NE 1018,2 35 0,0
16.06.2018 05:00:00 9,5 5,9 3 2 4 2 NW 1018,3 46 0,0
16.06.2018 04:00:00 9,4 5,4 3 2 4 2 NNW 1018,2 50 0,0
16.06.2018 03:00:00 9,6 5,6 0 0 5 3 N 1018,0 50 0,0
16.06.2018 02:00:00 9,1 5,1 0 0 16 8 N 1017,7 49 0,0
16.06.2018 01:00:00 12,1 5,0 4 2 16 8 NNW 1017,5 50 0,0
16.06.2018 00:00:00 12,7 4,9 5 3 10 5 WNW 1017,2 50 0,0
15.06.2018 23:00:00 13,3 4,7 5 3 8 4 WNW 1017,2 50 0,0
15.06.2018 22:00:00 13,3 5,9 4 2 17 9 WNW 1017,1 42 0,0
15.06.2018 21:00:00 16,5 10,4 7 4 22 12 W 1016,8 32 0,0
15.06.2018 20:00:00 19,1 9,3 10 5 32 17 WSW 1016,3 31 0,0
15.06.2018 19:00:00 19,2 9,4 16 8 32 18 WSW 1016,2 27 0,0
15.06.2018 18:00:00 20,6 9,8 20 11 35 19 WSW 1016,1 28 0,0
15.06.2018 17:00:00 21,4 9,3 22 12 35 19 WSW 1016,0 28 0,0
15.06.2018 16:00:00 21,3 9,2 23 12 36 19 WSW 1015,9 33 0,0
15.06.2018 15:00:00 21,3 9,8 21 12 36 19 WSW 1015,7 24 0,0
15.06.2018 14:00:00 21,4 9,9 18 10 36 19 WSW 1015,8 26 0,0
15.06.2018 13:00:00 18,3 12,5 22 12 36 19 SSW 1015,6 18 0,0
15.06.2018 12:00:00 16,6 12,6 20 11 26 14 SSW 1015,5 17 0,0
15.06.2018 11:00:00 19,0 8,3 12 6 21 11 W 1015,5 27 0,0
15.06.2018 10:00:00 19,5 8,8 9 5 19 11 W 1015,1 22 0,0
15.06.2018 09:00:00 19,5 10,7 8 5 19 11 W 1014,8 27 0,0
15.06.2018 08:00:00 18,0 11,3 10 5 19 11 W 1014,5 23 0,0
15.06.2018 07:00:00 16,9 13,2 7 4 19 11 W 1013,7 16 0,0
15.06.2018 06:00:00 15,5 13,3 8 4 21 11 WSW 1013,3 11 0,0
15.06.2018 05:00:00 15,9 13,2 10 6 21 11 WSW 1013,1 15 0,0
15.06.2018 04:00:00 16,2 12,9 12 6 18 10 WSW 1012,8 17 0,0
15.06.2018 03:00:00 15,8 12,7 9 5 17 9 SW 1012,7 15 0,0
15.06.2018 02:00:00 16,1 11,8 8 5 27 15 WSW 1012,4 28 0,0
15.06.2018 01:00:00 17,0 12,6 14 7 27 15 WSW 1012,3 41 0,0
15.06.2018 00:00:00 16,4 13,3 18 10 25 14 SW 1012,2 33 0,0
14.06.2018 23:00:00 16,3 13,4 18 10 24 13 SSW 1012,4 37 0,0
14.06.2018 22:00:00 16,1 13,4 16 8 28 15 SSW 1012,4 35 0,0
14.06.2018 21:00:00 15,9 12,5 18 10 30 16 SSW 1012,3 40 0,0
14.06.2018 20:00:00 16,4 12,2 22 12 34 18 SSW 1012,3 43 0,0
14.06.2018 19:00:00 16,9 12,0 23 13 37 20 SSW 1012,3 37 0,0
14.06.2018 18:00:00 17,6 12,1 25 14 40 22 SSW 1012,4 34 0,0
14.06.2018 17:00:00 18,1 10,7 26 14 40 22 SSW 1012,6 36 0,0
14.06.2018 16:00:00 18,5 10,8 29 15 39 21 SSW 1012,8 34 0,0
14.06.2018 15:00:00 17,6 10,0 25 13 39 21 SW 1013,2 34 0,0
14.06.2018 14:00:00 18,5 10,1 23 13 36 19 WSW 1013,2 28 0,0
14.06.2018 13:00:00 18,5 7,6 21 11 31 17 WSW 1013,2 36 0,0
14.06.2018 12:00:00 19,0 6,1 10 5 29 16 W 1013,4 38 0,0
14.06.2018 11:00:00 18,1 6,0 14 7 29 16 SW 1013,6 36 0,0
14.06.2018 10:00:00 16,7 6,2 12 7 29 16 W 1013,4 45 0,0
14.06.2018 09:00:00 15,7 6,1 15 8 27 14 WSW 1013,4 40 0,0
14.06.2018 08:00:00 15,8 7,0 10 5 18 10 W 1013,0 42 0,0
14.06.2018 07:00:00 14,8 9,2 8 4 14 8 W 1013,0 36 0,0
14.06.2018 06:00:00 12,5 9,9 3 1 7 4 WNW 1013,0 39 0,0
14.06.2018 05:00:00 9,9 8,5 4 2 8 5 WNW 1012,7 31 0,0
14.06.2018 04:00:00 9,9 8,3 4 2 9 5 WNW 1012,5 34 0,0
14.06.2018 03:00:00 11,1 8,7 5 3 9 5 WNW 1012,0 39 0,0
14.06.2018 02:00:00 11,7 8,7 5 3 15 8 WNW 1011,3 47 0,0
14.06.2018 01:00:00 12,7 9,2 5 3 15 8 WNW 1011,4 43 0,0
14.06.2018 00:00:00 13,9 10,3 8 4 13 7 WNW 1011,3 16 0,0
13.06.2018 23:00:00 13,7 11,9 9 5 13 7 W 1010,7 50 0,0
13.06.2018 22:00:00 13,9 11,8 5 3 10 6 W 1010,1 50 0,0
13.06.2018 21:00:00 16,3 11,9 4 2 16 9 W 1009,4 50 0,0
13.06.2018 20:00:00 18,0 12,0 5 3 26 14 WNW 1009,0 50 0,0
13.06.2018 19:00:00 17,6 13,5 10 5 27 15 W 1008,9 31 0,0
13.06.2018 18:00:00 17,7 13,4 14 8 29 16 W 1008,7 24 0,0
13.06.2018 17:00:00 19,3 13,0 17 9 32 18 WSW 1008,5 25 0,0
13.06.2018 16:00:00 18,5 13,1 10 5 34 18 W 1008,4 29 0,0

tt = Température de l'air
td = dewpoint
ff = Vitesse du vent
fx = gusts
dd = Direction du vent
ppp = reduced air pressure
vv = visibility
rr = Quantités de précipitations

stations d'obs. à proximité